sat.trackr.live / text

‹ back to catalog

CENTISPACE-1 S7

NORAD 62576 · 2025-007B

PAYLOAD ACTIVE UNKNOWN

§ Identity

Operator
Country
PRC
Launch date
2025-01-13
Launch site
YSLA
Launch vehicle
Mass (kg)
RCS (m²)

External: N2YO · Heavens-Above · Gunter

§ Orbital elements

Epoch: 2026-09-22T18:18:02.046816Z

Period
104.30 min
Inclination
54.9771°
Eccentricity
0.0010626
Mean motion
13.80623957 rev/d
Perigee alt
953.9 km
Apogee alt
969.5 km
Semi-major
7,339.8 km
B*
6.9597e-5
RAAN
310.7257°
Arg perigee
255.2746°
Mean anomaly
104.7032°
Rev number
8,819

§ Raw data

CENTISPACE-1 S71 62576U 25007B   26265.76252369 -.00000067  00000+0  69597-4 0  99942 62576  54.9771 310.7257 0010626 255.2746 104.7032 13.80623957 88199

JSON: /api/v1/satellites/62576 · /tle

For live sub-satellite position, see the globe view (requires WebGL).

§ Visibility from observer

Set your observer location to see the next 7 days of passes ≥ 10°. The values pass through the URL so the page stays shareable.

No JS? Fill the form by hand. The geolocation button needs JavaScript.

§ Radio — SatNOGS DB

ModeDescriptionDownlinkUplink
FM S-band telemetry 2.260 GHz

1 transmitter · refreshed weekly from db.satnogs.org